Location: Falconara Alta
(43.6167°N, 13.4000°E)
Time: 01:59:14
(UTC+00:00)

Cosmos 2074 Rocket - Pass Details

Date: 09 April 2020
Orbit: 967 x 986 km, 82.9° (Epoch: 05 June)

Event Time Altitude Azimuth Distance (km) Brightness Sun altitude
Rises 17:57:26 0° 355° (N) 3,699 7.3 -3.4°
Reaches altitude 10° 18:00:01 10° 360° (N) 2,749 6.6 -3.8°
Maximum altitude 18:06:13 57° 78° (ENE) 1,151 4.2 -4.9°
Drops below altitude 10° 18:12:23 10° 157° (SSE) 2,736 6.0 -6.0°
Sets 18:14:57 0° 161° (SSE) 3,680 6.7 -6.4°
